contact:dominique.lefevre@mio.osupytheas.fr, maurice.libes@osupytheas.fr, didier.mallarino@osupytheas.fr
Project:EMSO http://www.emso-fr.org/EMSO-France
Depth: 2436.0 m
Title:EMSO Ligure Ouest : Data MII capteur MICROCAT
DateTime_Computer,Latitude,Longitude,Temperature,Conductivity,Pressure,DateTime_Instrument
DateTime_Computer,Latitude,Longitude,degC,S m-1,dbar,DateTime_Instrument
2022-05-02T00:01:38Z,42.805,6.029,13.3000,4.60037,2470.11,2022-5-02T02:03:18Z
2022-05-02T00:04:41Z,42.805,6.029,13.3000,4.60040,2470.133,2022-5-02T02:06:21Z
2022-05-02T00:07:45Z,42.805,6.029,13.2998,4.60036,2470.11,2022-5-02T02:09:24Z
2022-05-02T00:10:48Z,42.805,6.029,13.2997,4.60036,2470.124,2022-5-02T02:12:27Z
2022-05-02T00:13:51Z,42.805,6.029,13.2999,4.60036,2470.087,2022-5-02T02:15:31Z
2022-05-02T00:16:54Z,42.805,6.029,13.2997,4.60037,2470.11,2022-5-02T02:18:34Z
2022-05-02T00:19:57Z,42.805,6.029,13.2997,4.60038,2470.087,2022-5-02T02:21:37Z
2022-05-02T00:23:00Z,42.805,6.029,13.2997,4.60039,2470.087,2022-5-02T02:24:40Z
2022-05-02T00:26:03Z,42.805,6.029,13.2996,4.60036,2470.11,2022-5-02T02:27:43Z
2022-05-02T00:29:06Z,42.805,6.029,13.2996,4.60039,2470.063,2022-5-02T02:30:46Z
2022-05-02T00:32:10Z,42.805,6.029,13.2999,4.60038,2470.087,2022-5-02T02:33:49Z
2022-05-02T00:35:13Z,42.805,6.029,13.2997,4.60038,2470.077,2022-5-02T02:36:52Z
2022-05-02T00:38:16Z,42.805,6.029,13.2996,4.60038,2470.11,2022-5-02T02:39:56Z
2022-05-02T00:41:19Z,42.805,6.029,13.2997,4.60036,2470.087,2022-5-02T02:42:59Z
2022-05-02T00:44:22Z,42.805,6.029,13.2995,4.60035,2470.063,2022-5-02T02:46:02Z
2022-05-02T00:47:25Z,42.805,6.029,13.2995,4.60036,2470.04,2022-5-02T02:49:05Z
2022-05-02T00:50:28Z,42.805,6.029,13.3000,4.60038,2470.04,2022-5-02T02:52:08Z
2022-05-02T00:53:31Z,42.805,6.029,13.2997,4.60036,2470.04,2022-5-02T02:55:11Z
2022-05-02T00:56:34Z,42.805,6.029,13.2999,4.60035,2470.053,2022-5-02T02:58:14Z
2022-05-02T00:59:38Z,42.805,6.029,13.2996,4.60036,2470.04,2022-5-02T03:01:17Z
2022-05-02T01:02:41Z,42.805,6.029,13.2999,4.60036,2470.053,2022-5-02T03:04:21Z
2022-05-02T01:05:44Z,42.805,6.029,13.2998,4.60034,2470.04,2022-5-02T03:07:24Z
2022-05-02T01:08:47Z,42.805,6.029,13.2992,4.60034,2470.077,2022-5-02T03:10:27Z
2022-05-02T01:11:50Z,42.805,6.029,13.2995,4.60034,2470.03,2022-5-02T03:13:30Z
2022-05-02T01:14:53Z,42.805,6.029,13.2998,4.60036,2470.04,2022-5-02T03:16:33Z
2022-05-02T01:17:56Z,42.805,6.029,13.2996,4.60035,2470.053,2022-5-02T03:19:36Z
2022-05-02T01:20:59Z,42.805,6.029,13.2997,4.60035,2470.077,2022-5-02T03:22:39Z
2022-05-02T01:24:03Z,42.805,6.029,13.2996,4.60035,2470.063,2022-5-02T03:25:42Z
2022-05-02T01:27:06Z,42.805,6.029,13.2998,4.60035,2470.04,2022-5-02T03:28:45Z
2022-05-02T01:30:09Z,42.805,6.029,13.2996,4.60034,2470.04,2022-5-02T03:31:49Z
2022-05-02T01:33:12Z,42.805,6.029,13.2997,4.60035,2470.063,2022-5-02T03:34:52Z
2022-05-02T01:36:15Z,42.805,6.029,13.2995,4.60036,2470.04,2022-5-02T03:37:55Z
2022-05-02T01:39:18Z,42.805,6.029,13.3001,4.60035,2470.04,2022-5-02T03:40:58Z
2022-05-02T01:42:21Z,42.805,6.029,13.2998,4.60039,2470.053,2022-5-02T03:44:01Z
2022-05-02T01:45:24Z,42.805,6.029,13.2998,4.60035,2470.063,2022-5-02T03:47:04Z
2022-05-02T01:48:27Z,42.805,6.029,13.2996,4.60036,2469.993,2022-5-02T03:50:07Z
2022-05-02T01:51:31Z,42.805,6.029,13.2998,4.60035,2470.04,2022-5-02T03:53:10Z
2022-05-02T01:54:34Z,42.805,6.029,13.2998,4.60036,2470.04,2022-5-02T03:56:13Z
2022-05-02T01:57:37Z,42.805,6.029,13.2996,4.60036,2470.04,2022-5-02T03:59:17Z
2022-05-02T02:00:40Z,42.805,6.029,13.2998,4.60034,2470.017,2022-5-02T04:02:20Z
2022-05-02T02:03:43Z,42.805,6.029,13.2997,4.60035,2470.017,2022-5-02T04:05:23Z
2022-05-02T02:06:46Z,42.805,6.029,13.2998,4.60036,2470.017,2022-5-02T04:08:26Z
2022-05-02T02:09:49Z,42.805,6.029,13.2998,4.60036,2470.053,2022-5-02T04:11:29Z
2022-05-02T02:12:52Z,42.805,6.029,13.2998,4.60037,2470.017,2022-5-02T04:14:32Z
2022-05-02T02:15:56Z,42.805,6.029,13.2994,4.60035,2470.017,2022-5-02T04:17:35Z
2022-05-02T02:18:59Z,42.805,6.029,13.2995,4.60036,2470.04,2022-5-02T04:20:38Z
2022-05-02T02:22:02Z,42.805,6.029,13.2996,4.60036,2470.007,2022-5-02T04:23:42Z
2022-05-02T02:25:05Z,42.805,6.029,13.2994,4.60035,2470.03,2022-5-02T04:26:45Z
2022-05-02T02:28:08Z,42.805,6.029,13.2998,4.60035,2470.007,2022-5-02T04:29:48Z
2022-05-02T02:31:11Z,42.805,6.029,13.2998,4.60036,2469.993,2022-5-02T04:32:51Z
2022-05-02T02:34:14Z,42.805,6.029,13.2998,4.60038,2470.04,2022-5-02T04:35:54Z
2022-05-02T02:37:17Z,42.805,6.029,13.2996,4.60037,2470.04,2022-5-02T04:38:57Z
2022-05-02T02:40:20Z,42.805,6.029,13.2998,4.60036,2470.017,2022-5-02T04:42:00Z
2022-05-02T02:43:24Z,42.805,6.029,13.3000,4.60036,2470.053,2022-5-02T04:45:03Z
2022-05-02T02:46:27Z,42.805,6.029,13.2996,4.60036,2470.017,2022-5-02T04:48:06Z
2022-05-02T02:49:30Z,42.805,6.029,13.2998,4.60036,2470.03,2022-5-02T04:51:10Z
2022-05-02T02:52:33Z,42.805,6.029,13.2998,4.60035,2470.017,2022-5-02T04:54:13Z
2022-05-02T02:55:36Z,42.805,6.029,13.2998,4.60036,2470.04,2022-5-02T04:57:16Z
2022-05-02T02:58:39Z,42.805,6.029,13.2993,4.60035,2470.053,2022-5-02T05:00:19Z
2022-05-02T03:01:42Z,42.805,6.029,13.2998,4.60035,2470.017,2022-5-02T05:03:22Z
2022-05-02T03:04:45Z,42.805,6.029,13.2996,4.60034,2470.03,2022-5-02T05:06:25Z
2022-05-02T03:07:48Z,42.805,6.029,13.2998,4.60034,2470.007,2022-5-02T05:09:28Z
2022-05-02T03:10:52Z,42.805,6.029,13.2996,4.60033,2470.017,2022-5-02T05:12:31Z
2022-05-02T03:13:55Z,42.805,6.029,13.2998,4.60035,2470.017,2022-5-02T05:15:35Z
2022-05-02T03:16:58Z,42.805,6.029,13.2995,4.60034,2470.04,2022-5-02T05:18:38Z
2022-05-02T03:20:01Z,42.805,6.029,13.2998,4.60034,2470.04,2022-5-02T05:21:41Z
2022-05-02T03:23:04Z,42.805,6.029,13.2998,4.60033,2470.04,2022-5-02T05:24:44Z
2022-05-02T03:26:07Z,42.805,6.029,13.2997,4.60034,2470.04,2022-5-02T05:27:47Z
2022-05-02T03:29:10Z,42.805,6.029,13.2997,4.60034,2470.03,2022-5-02T05:30:50Z
2022-05-02T03:32:13Z,42.805,6.029,13.2996,4.60033,2470.017,2022-5-02T05:33:53Z
2022-05-02T03:35:17Z,42.805,6.029,13.2996,4.60034,2470.04,2022-5-02T05:36:56Z
2022-05-02T03:38:20Z,42.805,6.029,13.2996,4.60034,2470.053,2022-5-02T05:39:59Z
2022-05-02T03:41:23Z,42.805,6.029,13.2997,4.60034,2470.04,2022-5-02T05:43:03Z
2022-05-02T03:44:26Z,42.805,6.029,13.2998,4.60035,2470.017,2022-5-02T05:46:06Z
2022-05-02T03:47:29Z,42.805,6.029,13.2999,4.60033,2470.04,2022-5-02T05:49:09Z
2022-05-02T03:50:32Z,42.805,6.029,13.2995,4.60034,2470.04,2022-5-02T05:52:12Z
2022-05-02T03:53:35Z,42.805,6.029,13.2994,4.60035,2470.053,2022-5-02T05:55:15Z
2022-05-02T03:56:38Z,42.805,6.029,13.2998,4.60034,2470.053,2022-5-02T05:58:18Z
2022-05-02T03:59:41Z,42.805,6.029,13.2997,4.60033,2470.04,2022-5-02T06:01:21Z
2022-05-02T04:02:45Z,42.805,6.029,13.2995,4.60034,2470.063,2022-5-02T06:04:24Z
2022-05-02T04:05:48Z,42.805,6.029,13.2998,4.60034,2470.04,2022-5-02T06:07:27Z
2022-05-02T04:08:51Z,42.805,6.029,13.2997,4.60034,2470.04,2022-5-02T06:10:31Z
2022-05-02T04:11:54Z,42.805,6.029,13.2996,4.60034,2470.03,2022-5-02T06:13:34Z
2022-05-02T04:14:57Z,42.805,6.029,13.2994,4.60034,2470.03,2022-5-02T06:16:37Z
2022-05-02T04:18:00Z,42.805,6.029,13.3001,4.60035,2470.04,2022-5-02T06:19:40Z
2022-05-02T04:21:03Z,42.805,6.029,13.2999,4.60034,2470.04,2022-5-02T06:22:43Z
2022-05-02T04:24:06Z,42.805,6.029,13.2998,4.60034,2470.063,2022-5-02T06:25:46Z
2022-05-02T04:27:09Z,42.805,6.029,13.2993,4.60034,2470.04,2022-5-02T06:28:49Z
2022-05-02T04:30:13Z,42.805,6.029,13.2998,4.60033,2470.063,2022-5-02T06:31:52Z
2022-05-02T04:33:16Z,42.805,6.029,13.2996,4.60033,2470.077,2022-5-02T06:34:56Z
2022-05-02T04:36:19Z,42.805,6.029,13.3002,4.60036,2470.04,2022-5-02T06:37:59Z
2022-05-02T04:39:22Z,42.805,6.029,13.2995,4.60033,2470.04,2022-5-02T06:41:02Z
2022-05-02T04:42:25Z,42.805,6.029,13.2998,4.60033,2470.063,2022-5-02T06:44:05Z
2022-05-02T04:45:28Z,42.805,6.029,13.2997,4.60035,2470.017,2022-5-02T06:47:08Z
2022-05-02T04:48:31Z,42.805,6.029,13.2998,4.60034,2470.077,2022-5-02T06:50:11Z
2022-05-02T04:51:34Z,42.805,6.029,13.2997,4.60034,2470.077,2022-5-02T06:53:14Z
2022-05-02T04:54:38Z,42.805,6.029,13.2999,4.60033,2470.077,2022-5-02T06:56:17Z
2022-05-02T04:57:41Z,42.805,6.029,13.2996,4.60033,2470.063,2022-5-02T06:59:20Z
2022-05-02T05:00:44Z,42.805,6.029,13.2998,4.60034,2470.087,2022-5-02T07:02:24Z
2022-05-02T05:03:47Z,42.805,6.029,13.2996,4.60034,2470.087,2022-5-02T07:05:27Z
2022-05-02T05:06:50Z,42.805,6.029,13.2994,4.60034,2470.063,2022-5-02T07:08:30Z
2022-05-02T05:09:53Z,42.805,6.029,13.2997,4.60034,2470.1,2022-5-02T07:11:33Z
2022-05-02T05:12:56Z,42.805,6.029,13.2998,4.60033,2470.11,2022-5-02T07:14:36Z
2022-05-02T05:15:59Z,42.805,6.029,13.2996,4.60034,2470.077,2022-5-02T07:17:39Z
2022-05-02T05:19:02Z,42.805,6.029,13.2999,4.60035,2470.087,2022-5-02T07:20:42Z
2022-05-02T05:22:06Z,42.805,6.029,13.2998,4.60034,2470.077,2022-5-02T07:23:45Z
2022-05-02T05:25:09Z,42.805,6.029,13.2995,4.60035,2470.087,2022-5-02T07:26:48Z
2022-05-02T05:28:12Z,42.805,6.029,13.2996,4.60036,2470.11,2022-5-02T07:29:52Z
2022-05-02T05:31:15Z,42.805,6.029,13.2996,4.60034,2470.124,2022-5-02T07:32:55Z
2022-05-02T05:34:18Z,42.805,6.029,13.2994,4.60035,2470.11,2022-5-02T07:35:58Z
2022-05-02T05:37:21Z,42.805,6.029,13.3000,4.60034,2470.087,2022-5-02T07:39:01Z
2022-05-02T05:40:24Z,42.805,6.029,13.3000,4.60034,2470.11,2022-5-02T07:42:04Z
2022-05-02T05:43:27Z,42.805,6.029,13.2998,4.60036,2470.124,2022-5-02T07:45:07Z
2022-05-02T05:46:31Z,42.805,6.029,13.2996,4.60035,2470.147,2022-5-02T07:48:10Z
2022-05-02T05:49:34Z,42.805,6.029,13.2995,4.60036,2470.133,2022-5-02T07:51:13Z
2022-05-02T05:52:37Z,42.805,6.029,13.2996,4.60035,2470.1,2022-5-02T07:54:17Z
2022-05-02T05:55:40Z,42.805,6.029,13.2999,4.60036,2470.124,2022-5-02T07:57:20Z
2022-05-02T05:58:43Z,42.805,6.029,13.2994,4.60035,2470.124,2022-5-02T08:00:23Z
2022-05-02T06:01:46Z,42.805,6.029,13.2996,4.60035,2470.147,2022-5-02T08:03:26Z
2022-05-02T06:04:49Z,42.805,6.029,13.2995,4.60034,2470.147,2022-5-02T08:06:29Z
2022-05-02T06:07:52Z,42.805,6.029,13.2995,4.60035,2470.124,2022-5-02T08:09:32Z
2022-05-02T06:10:55Z,42.805,6.029,13.2996,4.60034,2470.156,2022-5-02T08:12:35Z
2022-05-02T06:13:59Z,42.805,6.029,13.2996,4.60035,2470.11,2022-5-02T08:15:38Z
2022-05-02T06:17:02Z,42.805,6.029,13.2997,4.60035,2470.124,2022-5-02T08:18:41Z
2022-05-02T06:20:05Z,42.805,6.029,13.2994,4.60036,2470.156,2022-5-02T08:21:45Z
2022-05-02T06:23:08Z,42.805,6.029,13.2996,4.60035,2470.133,2022-5-02T08:24:48Z
2022-05-02T06:26:11Z,42.805,6.029,13.2998,4.60036,2470.156,2022-5-02T08:27:51Z
2022-05-02T06:29:14Z,42.805,6.029,13.2998,4.60034,2470.156,2022-5-02T08:30:54Z
2022-05-02T06:32:17Z,42.805,6.029,13.2998,4.60035,2470.063,2022-5-02T08:33:57Z
2022-05-02T06:35:20Z,42.805,6.029,13.2999,4.60036,2470.156,2022-5-02T08:37:00Z
2022-05-02T06:38:23Z,42.805,6.029,13.2998,4.60035,2470.171,2022-5-02T08:40:03Z
2022-05-02T06:41:27Z,42.805,6.029,13.2996,4.60037,2470.11,2022-5-02T08:43:06Z
2022-05-02T06:44:30Z,42.805,6.029,13.2998,4.60034,2470.133,2022-5-02T08:46:09Z
2022-05-02T06:47:33Z,42.805,6.029,13.2992,4.60035,2470.171,2022-5-02T08:49:13Z
2022-05-02T06:50:36Z,42.805,6.029,13.2997,4.60035,2470.147,2022-5-02T08:52:16Z
2022-05-02T06:53:39Z,42.805,6.029,13.2996,4.60036,2470.11,2022-5-02T08:55:19Z
2022-05-02T06:56:42Z,42.805,6.029,13.2995,4.60035,2470.133,2022-5-02T08:58:22Z
2022-05-02T06:59:45Z,42.805,6.029,13.2994,4.60036,2470.133,2022-5-02T09:01:25Z
2022-05-02T07:02:48Z,42.805,6.029,13.2998,4.60035,2470.171,2022-5-02T09:04:28Z
2022-05-02T07:05:51Z,42.805,6.029,13.2998,4.60038,2470.156,2022-5-02T09:07:31Z
2022-05-02T07:08:55Z,42.805,6.029,13.3001,4.60035,2470.133,2022-5-02T09:10:34Z
2022-05-02T07:11:58Z,42.805,6.029,13.2995,4.60035,2470.147,2022-5-02T09:13:38Z
2022-05-02T07:15:01Z,42.805,6.029,13.2998,4.60036,2470.11,2022-5-02T09:16:41Z
2022-05-02T07:18:04Z,42.805,6.029,13.2998,4.60037,2470.133,2022-5-02T09:19:44Z
2022-05-02T07:21:07Z,42.805,6.029,13.2995,4.60036,2470.156,2022-5-02T09:22:47Z
2022-05-02T07:24:10Z,42.805,6.029,13.2997,4.60036,2470.18,2022-5-02T09:25:50Z
2022-05-02T07:27:13Z,42.805,6.029,13.3000,4.60036,2470.143,2022-5-02T09:28:53Z
2022-05-02T07:30:16Z,42.805,6.029,13.2998,4.60036,2470.143,2022-5-02T09:31:56Z
2022-05-02T07:33:20Z,42.805,6.029,13.2998,4.60034,2470.18,2022-5-02T09:34:59Z
2022-05-02T07:36:23Z,42.805,6.029,13.2996,4.60037,2470.18,2022-5-02T09:38:02Z
2022-05-02T07:39:26Z,42.805,6.029,13.2995,4.60037,2470.133,2022-5-02T09:41:06Z
2022-05-02T07:42:29Z,42.805,6.029,13.2994,4.60035,2470.156,2022-5-02T09:44:09Z
2022-05-02T07:45:32Z,42.805,6.029,13.2994,4.60039,2470.11,2022-5-02T09:47:12Z
2022-05-02T07:48:35Z,42.805,6.029,13.2996,4.60037,2470.171,2022-5-02T09:50:15Z
2022-05-02T07:51:38Z,42.805,6.029,13.2996,4.60034,2470.11,2022-5-02T09:53:18Z
2022-05-02T07:54:41Z,42.805,6.029,13.2998,4.60036,2470.171,2022-5-02T09:56:21Z
2022-05-02T07:57:44Z,42.805,6.029,13.2996,4.60038,2470.11,2022-5-02T09:59:24Z
2022-05-02T08:00:48Z,42.805,6.029,13.2993,4.60035,2470.156,2022-5-02T10:02:27Z
2022-05-02T08:03:51Z,42.805,6.029,13.2995,4.60036,2470.156,2022-5-02T10:05:30Z
2022-05-02T08:06:54Z,42.805,6.029,13.2998,4.60036,2470.133,2022-5-02T10:08:34Z
2022-05-02T08:09:57Z,42.805,6.029,13.2998,4.60036,2470.133,2022-5-02T10:11:37Z
2022-05-02T08:13:00Z,42.805,6.029,13.2998,4.60035,2470.147,2022-5-02T10:14:40Z
2022-05-02T08:16:03Z,42.805,6.029,13.2999,4.60036,2470.11,2022-5-02T10:17:43Z
2022-05-02T08:19:06Z,42.805,6.029,13.2998,4.60036,2470.11,2022-5-02T10:20:46Z
2022-05-02T08:22:09Z,42.805,6.029,13.2998,4.60035,2470.087,2022-5-02T10:23:49Z
2022-05-02T08:25:13Z,42.805,6.029,13.2999,4.60037,2470.133,2022-5-02T10:26:52Z
2022-05-02T08:28:16Z,42.805,6.029,13.2998,4.60037,2470.11,2022-5-02T10:29:55Z
2022-05-02T08:31:19Z,42.805,6.029,13.2996,4.60036,2470.147,2022-5-02T10:32:59Z
2022-05-02T08:34:22Z,42.805,6.029,13.2996,4.60038,2470.11,2022-5-02T10:36:02Z
2022-05-02T08:37:25Z,42.805,6.029,13.2993,4.60035,2470.156,2022-5-02T10:39:05Z
2022-05-02T08:40:28Z,42.805,6.029,13.2999,4.60035,2470.147,2022-5-02T10:42:08Z
2022-05-02T08:43:31Z,42.805,6.029,13.3000,4.60041,2470.124,2022-5-02T10:45:11Z
2022-05-02T08:46:34Z,42.805,6.029,13.3000,4.60038,2470.147,2022-5-02T10:48:14Z
2022-05-02T08:49:37Z,42.805,6.029,13.2998,4.60038,2470.133,2022-5-02T10:51:17Z
2022-05-02T08:52:41Z,42.805,6.029,13.2996,4.60034,2470.147,2022-5-02T10:54:20Z
2022-05-02T08:55:44Z,42.805,6.029,13.2996,4.60039,2470.11,2022-5-02T10:57:24Z
2022-05-02T08:58:47Z,42.805,6.029,13.2996,4.60038,2470.11,2022-5-02T11:00:27Z
2022-05-02T09:01:50Z,42.805,6.029,13.2998,4.60039,2470.087,2022-5-02T11:03:30Z
2022-05-02T09:04:53Z,42.805,6.029,13.2996,4.60036,2470.11,2022-5-02T11:06:33Z
2022-05-02T09:07:56Z,42.805,6.029,13.2996,4.60037,2470.087,2022-5-02T11:09:36Z
2022-05-02T09:10:59Z,42.805,6.029,13.2996,4.60037,2470.1,2022-5-02T11:12:39Z
2022-05-02T09:14:02Z,42.805,6.029,13.2998,4.60036,2470.11,2022-5-02T11:15:42Z
2022-05-02T09:17:06Z,42.805,6.029,13.2998,4.60036,2470.1,2022-5-02T11:18:45Z
2022-05-02T09:20:09Z,42.805,6.029,13.2997,4.60037,2470.087,2022-5-02T11:21:49Z
2022-05-02T09:23:12Z,42.805,6.029,13.2995,4.60037,2470.1,2022-5-02T11:24:52Z
2022-05-02T09:26:15Z,42.805,6.029,13.2998,4.60035,2470.087,2022-5-02T11:27:55Z
2022-05-02T09:29:18Z,42.805,6.029,13.2995,4.60036,2470.1,2022-5-02T11:30:58Z
2022-05-02T09:32:21Z,42.805,6.029,13.2998,4.60036,2470.1,2022-5-02T11:34:01Z
2022-05-02T09:35:24Z,42.805,6.029,13.2997,4.60036,2470.1,2022-5-02T11:37:04Z
2022-05-02T09:38:27Z,42.805,6.029,13.2998,4.60038,2470.063,2022-5-02T11:40:07Z
2022-05-02T09:41:31Z,42.805,6.029,13.2997,4.60036,2470.077,2022-5-02T11:43:10Z
2022-05-02T09:44:34Z,42.805,6.029,13.2997,4.60039,2470.1,2022-5-02T11:46:14Z
2022-05-02T09:47:37Z,42.805,6.029,13.2998,4.60035,2470.073,2022-5-02T11:49:17Z
2022-05-02T09:50:40Z,42.805,6.029,13.2995,4.60037,2470.087,2022-5-02T11:52:20Z
2022-05-02T09:53:43Z,42.805,6.029,13.2998,4.60037,2470.04,2022-5-02T11:55:23Z
2022-05-02T09:56:46Z,42.805,6.029,13.3000,4.60040,2470.087,2022-5-02T11:58:26Z
2022-05-02T09:59:49Z,42.805,6.029,13.2996,4.60036,2470.04,2022-5-02T12:01:29Z
2022-05-02T10:02:52Z,42.805,6.029,13.2998,4.60036,2470.1,2022-5-02T12:04:32Z
2022-05-02T10:05:56Z,42.805,6.029,13.2996,4.60038,2470.053,2022-5-02T12:07:35Z
2022-05-02T10:08:59Z,42.805,6.029,13.3000,4.60037,2470.04,2022-5-02T12:10:38Z
2022-05-02T10:12:02Z,42.805,6.029,13.3000,4.60040,2470.04,2022-5-02T12:13:42Z
2022-05-02T10:15:05Z,42.805,6.029,13.2996,4.60037,2470.04,2022-5-02T12:16:45Z
2022-05-02T10:18:08Z,42.805,6.029,13.2996,4.60038,2470.063,2022-5-02T12:19:48Z
2022-05-02T10:21:11Z,42.805,6.029,13.2998,4.60036,2470.04,2022-5-02T12:22:51Z
2022-05-02T10:24:14Z,42.805,6.029,13.2996,4.60036,2470.017,2022-5-02T12:25:54Z
2022-05-02T10:27:17Z,42.805,6.029,13.2997,4.60036,2470.04,2022-5-02T12:28:57Z
2022-05-02T10:30:20Z,42.805,6.029,13.2998,4.60037,2470.017,2022-5-02T12:32:00Z
2022-05-02T10:33:24Z,42.805,6.029,13.2993,4.60037,2470.04,2022-5-02T12:35:03Z
2022-05-02T10:36:27Z,42.805,6.029,13.2996,4.60036,2470.04,2022-5-02T12:38:07Z
2022-05-02T10:39:30Z,42.805,6.029,13.2996,4.60039,2470.03,2022-5-02T12:41:10Z
2022-05-02T10:42:33Z,42.805,6.029,13.2998,4.60036,2470.017,2022-5-02T12:44:13Z
2022-05-02T10:45:36Z,42.805,6.029,13.2996,4.60039,2470.03,2022-5-02T12:47:16Z
2022-05-02T10:48:39Z,42.805,6.029,13.2996,4.60037,2469.993,2022-5-02T12:50:19Z
2022-05-02T10:51:42Z,42.805,6.029,13.2998,4.60034,2470.053,2022-5-02T12:53:22Z
2022-05-02T10:54:45Z,42.805,6.029,13.2997,4.60037,2470.017,2022-5-02T12:56:25Z
2022-05-02T10:57:49Z,42.805,6.029,13.2998,4.60037,2470.017,2022-5-02T12:59:28Z
2022-05-02T11:00:52Z,42.805,6.029,13.2996,4.60036,2470.017,2022-5-02T13:02:32Z
2022-05-02T11:03:55Z,42.805,6.029,13.2997,4.60036,2470.03,2022-5-02T13:05:35Z
2022-05-02T11:06:58Z,42.805,6.029,13.2996,4.60040,2470.017,2022-5-02T13:08:38Z
2022-05-02T11:10:01Z,42.805,6.029,13.2997,4.60040,2469.993,2022-5-02T13:11:41Z
2022-05-02T11:13:04Z,42.805,6.029,13.2996,4.60038,2470.017,2022-5-02T13:14:44Z
2022-05-02T11:16:07Z,42.805,6.029,13.2996,4.60036,2470.007,2022-5-02T13:17:47Z
2022-05-02T11:19:10Z,42.805,6.029,13.2995,4.60037,2470.017,2022-5-02T13:20:50Z
2022-05-02T11:22:14Z,42.805,6.029,13.2999,4.60039,2469.993,2022-5-02T13:23:53Z
2022-05-02T11:25:17Z,42.805,6.029,13.3000,4.60036,2470.017,2022-5-02T13:26:56Z
2022-05-02T11:28:20Z,42.805,6.029,13.2999,4.60036,2469.993,2022-5-02T13:30:00Z
2022-05-02T11:31:23Z,42.805,6.029,13.2997,4.60037,2469.97,2022-5-02T13:33:03Z
2022-05-02T11:34:26Z,42.805,6.029,13.3000,4.60036,2469.947,2022-5-02T13:36:06Z
2022-05-02T11:37:29Z,42.805,6.029,13.2996,4.60039,2469.923,2022-5-02T13:39:09Z
2022-05-02T11:40:32Z,42.805,6.029,13.2999,4.60035,2469.97,2022-5-02T13:42:12Z
2022-05-02T11:43:35Z,42.805,6.029,13.2998,4.60036,2469.984,2022-5-02T13:45:15Z
2022-05-02T11:46:39Z,42.805,6.029,13.2996,4.60037,2469.947,2022-5-02T13:48:18Z
2022-05-02T11:49:42Z,42.805,6.029,13.2996,4.60043,2469.984,2022-5-02T13:51:21Z
2022-05-02T11:52:45Z,42.805,6.029,13.2998,4.60038,2469.984,2022-5-02T13:54:25Z
2022-05-02T11:55:48Z,42.805,6.029,13.2998,4.60036,2469.97,2022-5-02T13:57:28Z
2022-05-02T11:58:51Z,42.805,6.029,13.2996,4.60036,2469.984,2022-5-02T14:00:31Z
2022-05-02T12:01:54Z,42.805,6.029,13.2998,4.60039,2469.947,2022-5-02T14:03:34Z
2022-05-02T12:04:57Z,42.805,6.029,13.2997,4.60036,2469.984,2022-5-02T14:06:37Z
2022-05-02T12:08:00Z,42.805,6.029,13.3000,4.60035,2469.97,2022-5-02T14:09:40Z
2022-05-02T12:11:03Z,42.805,6.029,13.3000,4.60036,2469.984,2022-5-02T14:12:43Z
2022-05-02T12:14:07Z,42.805,6.029,13.2999,4.60038,2469.97,2022-5-02T14:15:46Z
2022-05-02T12:17:10Z,42.805,6.029,13.2997,4.60037,2469.97,2022-5-02T14:18:50Z
2022-05-02T12:20:13Z,42.805,6.029,13.2996,4.60039,2469.97,2022-5-02T14:21:53Z
2022-05-02T12:23:16Z,42.805,6.029,13.2998,4.60036,2469.923,2022-5-02T14:24:56Z
2022-05-02T12:26:19Z,42.805,6.029,13.2999,4.60033,2469.947,2022-5-02T14:27:59Z
2022-05-02T12:29:22Z,42.805,6.029,13.2997,4.60035,2469.947,2022-5-02T14:31:02Z
2022-05-02T12:32:25Z,42.805,6.029,13.2999,4.60035,2469.97,2022-5-02T14:34:05Z
2022-05-02T12:35:28Z,42.805,6.029,13.2995,4.60036,2469.984,2022-5-02T14:37:08Z
2022-05-02T12:38:32Z,42.805,6.029,13.2996,4.60035,2469.956,2022-5-02T14:40:11Z
2022-05-02T12:41:35Z,42.805,6.029,13.2995,4.60036,2469.923,2022-5-02T14:43:15Z
2022-05-02T12:44:38Z,42.805,6.029,13.2996,4.60036,2469.947,2022-5-02T14:46:18Z
2022-05-02T12:47:41Z,42.805,6.029,13.2998,4.60036,2469.97,2022-5-02T14:49:21Z
2022-05-02T12:50:44Z,42.805,6.029,13.2998,4.60037,2469.947,2022-5-02T14:52:24Z
2022-05-02T12:53:47Z,42.805,6.029,13.2998,4.60035,2469.947,2022-5-02T14:55:27Z
2022-05-02T12:56:50Z,42.805,6.029,13.3002,4.60036,2469.993,2022-5-02T14:58:30Z
2022-05-02T12:59:53Z,42.805,6.029,13.2996,4.60037,2469.97,2022-5-02T15:01:33Z
2022-05-02T13:02:57Z,42.805,6.029,13.2995,4.60038,2469.937,2022-5-02T15:04:36Z
2022-05-02T13:06:00Z,42.805,6.029,13.2996,4.60037,2469.96,2022-5-02T15:07:40Z
2022-05-02T13:09:03Z,42.805,6.029,13.2999,4.60037,2469.97,2022-5-02T15:10:43Z
2022-05-02T13:12:06Z,42.805,6.029,13.2996,4.60037,2469.923,2022-5-02T15:13:46Z
2022-05-02T13:15:09Z,42.805,6.029,13.2998,4.60038,2469.947,2022-5-02T15:16:49Z
2022-05-02T13:18:12Z,42.805,6.029,13.3000,4.60034,2469.947,2022-5-02T15:19:52Z
2022-05-02T13:21:15Z,42.805,6.029,13.2994,4.60035,2469.947,2022-5-02T15:22:55Z
2022-05-02T13:24:18Z,42.805,6.029,13.2994,4.60036,2469.96,2022-5-02T15:25:58Z
2022-05-02T13:27:22Z,42.805,6.029,13.2996,4.60036,2469.947,2022-5-02T15:29:01Z
2022-05-02T13:30:25Z,42.805,6.029,13.2998,4.60037,2469.96,2022-5-02T15:32:05Z
2022-05-02T13:33:28Z,42.805,6.029,13.2999,4.60038,2469.96,2022-5-02T15:35:08Z
2022-05-02T13:36:31Z,42.805,6.029,13.2996,4.60037,2469.984,2022-5-02T15:38:11Z
2022-05-02T13:39:34Z,42.805,6.029,13.2999,4.60039,2469.984,2022-5-02T15:41:14Z
2022-05-02T13:42:37Z,42.805,6.029,13.2997,4.60036,2469.923,2022-5-02T15:44:17Z
2022-05-02T13:45:40Z,42.805,6.029,13.2996,4.60035,2469.97,2022-5-02T15:47:20Z
2022-05-02T13:48:43Z,42.805,6.029,13.2996,4.60036,2469.97,2022-5-02T15:50:23Z
2022-05-02T13:51:47Z,42.805,6.029,13.3001,4.60037,2469.96,2022-5-02T15:53:26Z
2022-05-02T13:54:50Z,42.805,6.029,13.2996,4.60035,2469.947,2022-5-02T15:56:29Z
2022-05-02T13:57:53Z,42.805,6.029,13.2998,4.60037,2470.007,2022-5-02T15:59:33Z
2022-05-02T14:00:56Z,42.805,6.029,13.2995,4.60037,2469.97,2022-5-02T16:02:36Z
2022-05-02T14:03:59Z,42.805,6.029,13.2997,4.60036,2469.984,2022-5-02T16:05:39Z
2022-05-02T14:07:02Z,42.805,6.029,13.2996,4.60038,2469.97,2022-5-02T16:08:42Z
2022-05-02T14:10:05Z,42.805,6.029,13.2997,4.60036,2469.947,2022-5-02T16:11:45Z
2022-05-02T14:13:08Z,42.805,6.029,13.2998,4.60035,2469.984,2022-5-02T16:14:48Z
2022-05-02T14:16:11Z,42.805,6.029,13.2994,4.60035,2469.937,2022-5-02T16:17:51Z
2022-05-02T14:19:15Z,42.805,6.029,13.2999,4.60036,2469.937,2022-5-02T16:20:54Z
2022-05-02T14:22:18Z,42.805,6.029,13.2993,4.60035,2469.923,2022-5-02T16:23:58Z
2022-05-02T14:25:21Z,42.805,6.029,13.2994,4.60036,2469.947,2022-5-02T16:27:01Z
2022-05-02T14:28:24Z,42.805,6.029,13.2996,4.60037,2469.984,2022-5-02T16:30:04Z
2022-05-02T14:31:27Z,42.805,6.029,13.2996,4.60037,2469.96,2022-5-02T16:33:07Z
2022-05-02T14:34:30Z,42.805,6.029,13.2997,4.60036,2469.97,2022-5-02T16:36:10Z
2022-05-02T14:37:33Z,42.805,6.029,13.2998,4.60036,2469.947,2022-5-02T16:39:13Z
2022-05-02T14:40:36Z,42.805,6.029,13.2996,4.60037,2469.96,2022-5-02T16:42:16Z
2022-05-02T14:43:40Z,42.805,6.029,13.2998,4.60036,2469.937,2022-5-02T16:45:19Z
2022-05-02T14:46:43Z,42.805,6.029,13.2998,4.60038,2469.947,2022-5-02T16:48:23Z
2022-05-02T14:49:46Z,42.805,6.029,13.3000,4.60041,2469.984,2022-5-02T16:51:26Z
2022-05-02T14:52:49Z,42.805,6.029,13.2998,4.60039,2469.97,2022-5-02T16:54:29Z
2022-05-02T14:55:52Z,42.805,6.029,13.2993,4.60039,2469.97,2022-5-02T16:57:32Z
2022-05-02T14:58:55Z,42.805,6.029,13.2998,4.60038,2469.947,2022-5-02T17:00:35Z
2022-05-02T15:01:58Z,42.805,6.029,13.2992,4.60036,2469.9,2022-5-02T17:03:38Z
2022-05-02T15:05:01Z,42.805,6.029,13.2993,4.60036,2469.984,2022-5-02T17:06:41Z
2022-05-02T15:08:04Z,42.805,6.029,13.2998,4.60036,2469.97,2022-5-02T17:09:44Z
2022-05-02T15:11:08Z,42.805,6.029,13.2993,4.60034,2469.97,2022-5-02T17:12:47Z
2022-05-02T15:14:11Z,42.805,6.029,13.2996,4.60036,2469.984,2022-5-02T17:15:51Z